User: anonymous   Login
Location: Unspecified
(0.0000°N, 0.0000°E)
Time: 10:03:48
(UTC+00:00)
Language:

ONEWEB-0332 - Orbit

View from above orbital plane
View from above orbital plane
View from above satellite
View from above satellite

Ground track
Ground track

The orbit is defined by the following mean orbital elements,

1 49279U          26145.38329833 +.00000000 +00000-0 +20715-3 0 00009
2 49279  87.8942 294.2569 0001696  90.7764 269.3560 13.14503713    02
Epoch (UTC): 25 May 2026 09:11:56
Eccentricity: 0.0001696
inclination: 87.8942°
perigee height: 1205 km
apogee height: 1207 km
right ascension of ascending node: 294.2569°
argument of perigee: 90.7764°
revolutions per day: 13.14503713
mean anomaly at epoch: 269.3560°

The dashed part of the orbit path shows where the satellite is in the earth's shadow,  

DLR